This is the latest recevied weather packets stored in our database for station/object K6TTR. If no packets are shown the sender has not sent any weather packets the latest 10 day(s).
| Time | Temp. | Humidity | Pressure | Rain* | Wind** | Luminosity | Snow |
|---|---|---|---|---|---|---|---|
| 1778018629 | 19.44° C | 37% | 1013.6 hPa | 0 mm | - | 1051 W/m² | - |
| 1778018315 | 20° C | 39% | 1013.7 hPa | 0 mm | - | 160 W/m² | - |
| 1778018019 | 20° C | 37% | 1013.6 hPa | 0 mm | - | 151 W/m² | - |
| 1778017725 | 20° C | 38% | 1013.7 hPa | 0 mm | - | 239 W/m² | - |
| 1778017430 | 20° C | 37% | 1013.6 hPa | 0 mm | - | 394 W/m² | - |
| 1778017113 | 20° C | 37% | 1013.7 hPa | 0 mm | - | 304 W/m² | - |
| 1778016821 | 20° C | 36% | 1013.7 hPa | 0 mm | - | 1137 W/m² | - |
| 1778016528 | 20° C | 37% | 1013.8 hPa | 0 mm | - | 253 W/m² | - |
| 1778016212 | 20° C | 39% | 1013.7 hPa | 0 mm | - | 893 W/m² | - |
| 1778015915 | 20° C | 43% | 1013.6 hPa | 0 mm | - | 893 W/m² | - |
| 1778015620 | 20° C | 40% | 1013.7 hPa | 0 mm | - | 211 W/m² | - |
| 1778015324 | 19.44° C | 39% | 1013.5 hPa | 0 mm | - | 626 W/m² | - |
| 1778015030 | 18.89° C | 44% | 1013.7 hPa | 0 mm | - | 1136 W/m² | - |
| 1778014714 | 18.89° C | 46% | 1013.8 hPa | 0 mm | - | 285 W/m² | - |
| 1778014419 | 18.89° C | 45% | 1013.9 hPa | 0 mm | - | 230 W/m² | - |
| 1778014123 | 18.89° C | 45% | 1013.7 hPa | 0 mm | - | 229 W/m² | - |
| 1778013828 | 18.89° C | 43% | 1013.7 hPa | 0 mm | - | 232 W/m² | - |
| 1778013514 | 19.44° C | 42% | 1013.8 hPa | 0 mm | - | 176 W/m² | - |
| 1778013219 | 18.89° C | 45% | 1013.7 hPa | 0 mm | - | 239 W/m² | - |
| 1778012925 | 18.89° C | 44% | 1013.7 hPa | 0 mm | - | 229 W/m² | - |
| 1778012631 | 18.89° C | 46% | 1013.7 hPa | 0 mm | - | 141 W/m² | - |
| 1778012317 | 18.89° C | 44% | 1013.6 hPa | 0 mm | - | 174 W/m² | - |
| 1778012021 | 18.89° C | 47% | 1013.6 hPa | 0 mm | - | 165 W/m² | - |
| 1778011727 | 18.89° C | 46% | 1013 hPa | 0 mm | - | 195 W/m² | - |
| 1778011413 | 18.89° C | 48% | 1013 hPa | 0 mm | - | 1139 W/m² | - |
* Rain latest hour (hover to see other rain measurements)
** Current wind speed in m/s (hover to see current wind gust speed)